[[{"header":{"parameterUnit":"m.s-1","parameterCategory":1,"la1":30.2991,"la2":30.254,"lo1":-89.0895,"lo2":-89.0444,"dy":0.0017,"dx":0.0017,"nx":28,"ny":28,"refTime":"2024-10-08T03:00:00:Z","depth":0,"parameterNumber":2,"parameterNumberName":"U-component_of_WINDS"},"data":[0,0,0,0,0,0,0,0,0,0,0,0,0,0,0,0,0,0,0,0,0,0,0,0,0,0,0,0,0,0,0,0,0,0,0,0,0,0,0,0,0,0,0,0,0,0,0,0,0,0,0,0,0,0,0,0,0,0,-0.6969,-0.6969,0,-0.6961,-0.696,-0.696,-0.6924,-0.6923,-0.6922,-0.6921,-0.6915,-0.6915,-0.6916,0,0,0,0,0,0,0,0,0,0,0,0,0,-0.6955,-0.6955,-0.6969,-0.6969,-0.6969,-0.6961,-0.696,-0.696,-0.6924,-0.6923,-0.6922,-0.6921,-0.6914,-0.6915,-0.6916,0,0,0,0,0,0,0,0,0,0,0,0,0,-0.6955,-0.6956,-0.6969,-0.695,-0.6948,-0.6961,-0.696,-0.696,-0.6924,-0.6923,-0.6922,-0.6921,-0.6914,-0.6915,-0.6916,-0.6947,0,0,-0.6919,-0.6919,0,0,0,0,0,0,0,0,-0.6955,-0.6956,-0.6953,-0.6951,-0.6949,-0.6942,-0.6953,-0.6956,-0.6925,-0.6933,-0.6921,-0.692,-0.6925,-0.6925,-0.6926,-0.6947,-0.6947,-0.6919,-0.692,-0.692,-0.692,0,0,0,0,0,0,0,-0.6955,-0.6956,-0.6966,-0.6953,-0.695,-0.6942,-0.694,-0.6953,-0.6936,-0.6932,-0.693,-0.6929,-0.6924,-0.6925,-0.6926,-0.6947,-0.6919,-0.692,-0.692,-0.6921,-0.6993,-0.6994,0,0,0,0,0,0,-0.6958,-0.6956,-0.6966,-0.6965,-0.6949,-0.6943,-0.6942,-0.6946,-0.6936,-0.6933,-0.693,-0.6927,-0.6924,-0.6925,-0.6925,-0.6962,-0.692,-0.6921,-0.6921,-0.6991,-0.6993,-0.6995,0,0,0,0,0,0,-0.6958,-0.6959,-0.6966,-0.696,-0.696,-0.6945,-0.6949,-0.6946,-0.6948,-0.6934,-0.6931,-0.6935,-0.6923,-0.6924,-0.6942,-0.6961,-0.6921,-0.6922,-0.699,-0.6992,-0.6994,-0.7034,0,0,0,0,0,0,-0.6957,-0.6959,-0.6971,-0.6961,-0.6961,-0.6983,-0.6951,-0.6947,-0.6949,-0.6945,-0.6938,-0.6936,-0.6922,-0.6941,-0.6943,-0.6961,-0.6923,-0.6988,-0.6991,-0.6993,-0.7031,-0.7038,-0.7043,0,0,0,0,0,-0.6957,-0.6983,-0.6972,-0.6973,-0.6975,-0.6984,-0.6984,-0.6968,-0.6951,-0.6962,-0.6954,-0.6936,-0.6958,-0.6943,-0.6945,-0.6964,-0.6987,-0.699,-0.6993,-0.7029,-0.7036,-0.7043,0,0,0,0,0,0,-0.6997,-0.6981,-0.6969,-0.6992,-0.6989,-0.6978,-0.6992,-0.6976,-0.6979,-0.6976,-0.6956,-0.6955,-0.6976,-0.6971,-0.6955,-0.6994,-0.697,-0.6973,-0.6996,-0.7003,-0.7009,-0.701,-0.6924,0,0,0,0,0,-0.7008,-0.7016,-0.7002,-0.7024,-0.7024,-0.7008,-0.7012,-0.6999,-0.6996,-0.6995,-0.6988,-0.6986,-0.6993,-0.6997,-0.7003,-0.703,-0.7028,-0.7044,-0.705,-0.7055,-0.7059,-0.7073,-0.708,-0.7005,-0.7005,-0.7005,0,0,-0.7032,-0.7024,-0.7031,-0.7032,-0.7029,-0.7038,-0.7008,-0.7019,-0.7026,-0.6997,-0.7013,-0.7008,-0.7005,-0.7028,-0.7037,-0.7025,-0.7079,-0.7059,-0.7063,-0.7064,-0.7077,-0.7084,-0.7091,-0.7007,-0.7006,-0.7006,0,0,-0.708,-0.7075,-0.7093,-0.709,-0.7085,-0.7074,-0.7078,-0.7069,-0.7064,-0.708,-0.7058,-0.7066,-0.7078,-0.7077,-0.7077,-0.7124,-0.7108,-0.7126,-0.7157,-0.7172,-0.7177,-0.7183,-0.72,-0.7206,-0.713,-0.713,-0.713,0,-0.711,-0.7123,-0.7104,-0.7116,-0.7118,-0.7091,-0.7109,-0.7107,-0.7104,-0.7106,-0.7092,-0.7106,-0.7102,-0.7124,-0.7135,-0.7136,-0.7141,-0.7128,-0.7178,-0.7183,-0.7188,-0.7204,-0.721,-0.7132,-0.7132,-0.7132,-0.7132,0,-0.7161,-0.717,-0.7185,-0.7183,-0.7185,-0.7201,-0.7184,-0.7189,-0.7176,-0.7167,-0.7184,-0.7178,-0.7181,-0.7185,-0.7173,-0.7206,-0.7199,-0.7181,-0.7157,-0.7198,-0.7213,-0.7219,-0.7136,-0.7135,-0.7134,-0.7134,0,0,-0.7235,-0.7221,-0.7227,-0.7225,-0.7217,-0.7224,-0.7238,-0.7241,-0.7246,-0.7245,-0.7257,-0.7267,-0.7251,-0.7252,-0.7239,-0.7251,-0.7289,-0.7232,-0.7232,-0.7244,-0.7326,-0.7339,-0.7347,-0.7278,-0.7279,-0.728,-0.7326,0,-0.7282,-0.7305,-0.7287,-0.7314,-0.7322,-0.7296,-0.7308,-0.7305,-0.7297,-0.7303,-0.7294,-0.7302,-0.7279,-0.728,-0.7291,-0.7282,-0.7306,-0.7279,-0.729,-0.729,-0.7292,-0.7355,-0.7369,-0.7413,-0.7332,-0.7333,-0.7334,0,-0.734,-0.734,-0.7367,-0.7357,-0.736,-0.7371,-0.7372,-0.7378,-0.7374,-0.7367,-0.7368,-0.7351,-0.7365,-0.734,-0.7358,-0.734,-0.7344,-0.734,-0.7341,-0.7343,-0.7315,-0.7359,-0.7427,-0.7434,-0.7343,-0.7342,-0.7341,0,-0.7392,-0.74,-0.7417,-0.7416,-0.7404,-0.7413,-0.7409,-0.7403,-0.7406,-0.7407,-0.7408,-0.7411,-0.7413,-0.7415,-0.74,-0.7383,-0.7421,-0.7395,-0.7417,-0.7417,-0.7427,-0.7427,-0.7498,-0.7427,-0.7427,-0.7427,-0.7427,0,-0.7447,-0.7464,-0.744,-0.7451,-0.747,-0.7449,-0.7469,-0.7462,-0.7457,-0.7466,-0.7443,-0.7453,-0.7432,-0.7439,-0.7427,-0.7445,-0.7445,-0.7441,-0.7438,-0.7443,-0.7444,-0.7446,-0.7443,-0.7429,-0.7428,-0.7428,-0.7428,0,-0.7509,-0.7493,-0.751,-0.7497,-0.7495,-0.7509,-0.7499,-0.7508,-0.7498,-0.751,-0.7511,-0.7495,-0.7503,-0.7487,-0.7493,-0.7485,-0.751,-0.7501,-0.7511,-0.7509,-0.7532,-0.7531,-0.7608,-0.7617,-0.754,-0.7541,-0.7542,0,-0.7545,-0.7558,-0.7547,-0.7551,-0.7547,-0.7554,-0.7557,-0.7537,-0.754,-0.7536,-0.7546,-0.7551,-0.7554,-0.7567,-0.7557,-0.7561,-0.7553,-0.7579,-0.7553,-0.7559,-0.7554,-0.7554,-0.7555,-0.7585,-0.7586,-0.7587,-0.7588,0,-0.7612,-0.7603,-0.7607,-0.7608,-0.7611,-0.7612,-0.761,-0.7615,-0.7594,-0.7599,-0.7605,-0.7608,-0.7613,-0.7618,-0.7619,-0.7616,-0.7599,-0.7596,-0.7601,-0.7608,-0.7613,-0.7611,-0.7527,-0.7594,-0.7594,-0.7593,-0.7593,-0.7593,-0.7663,-0.7673,-0.7666,-0.7671,-0.7668,-0.7667,-0.7675,-0.7665,-0.767,-0.7672,-0.766,-0.767,-0.7665,-0.7665,-0.7662,-0.767,-0.7658,-0.7666,-0.7668,-0.767,-0.7674,-0.7611,-0.767,-0.767,-0.7669,-0.7669,-0.7669,0,-0.7729,-0.7723,-0.7728,-0.7726,-0.773,-0.7712,-0.7709,-0.7714,-0.7723,-0.7719,-0.7722,-0.773,-0.7735,-0.7724,-0.7728,-0.7736,-0.7728,-0.7738,-0.7737,-0.7737,-0.7684,-0.768,-0.7744,-0.7744,-0.7744,-0.7744,-0.7744,-0.7744,-0.7764,-0.778,-0.7771,-0.7785,-0.7779,-0.7788,-0.7788,-0.7787,-0.7784,-0.7793,-0.7797,-0.7789,-0.7783,-0.7786,-0.779,-0.7787,-0.779,-0.7802,-0.7796,-0.7748,-0.7741,-0.7734,-0.7729,-0.7802,-0.7803,-0.7848,-0.7848,-0.7849]},{"header":{"parameterUnit":"m.s-1","parameterCategory":1,"la1":30.2991,"la2":30.254,"lo1":-89.0895,"lo2":-89.0444,"dy":0.0017,"dx":0.0017,"nx":28,"ny":28,"refTime":"2024-10-08T03:00:00:Z","depth":0,"parameterNumber":3,"parameterNumberName":"V-component_of_WINDS"},"data":[0,0,0,0,0,0,0,0,0,0,0,0,0,0,0,0,0,0,0,0,0,0,0,0,0,0,0,0,0,0,0,0,0,0,0,0,0,0,0,0,0,0,0,0,0,0,0,0,0,0,0,0,0,0,0,0,0,0,-4.7874,-4.7874,0,-4.7866,-4.7866,-4.7866,-4.7788,-4.7786,-4.7784,-4.7782,-4.7772,-4.7774,-4.7775,0,0,0,0,0,0,0,0,0,0,0,0,0,-4.7821,-4.7823,-4.7874,-4.7874,-4.7874,-4.7866,-4.7866,-4.7866,-4.7788,-4.7786,-4.7783,-4.7781,-4.7772,-4.7774,-4.7776,0,0,0,0,0,0,0,0,0,0,0,0,0,-4.7832,-4.7823,-4.7874,-4.7834,-4.7831,-4.7866,-4.7866,-4.7866,-4.7788,-4.7786,-4.7783,-4.778,-4.7771,-4.7773,-4.7776,-4.7849,0,0,-4.7783,-4.7784,0,0,0,0,0,0,0,0,-4.7832,-4.7834,-4.784,-4.7837,-4.7833,-4.7825,-4.7844,-4.786,-4.7789,-4.7804,-4.7782,-4.7778,-4.7792,-4.7793,-4.7797,-4.7849,-4.7848,-4.7783,-4.7785,-4.7786,-4.7786,0,0,0,0,0,0,0,-4.7831,-4.7834,-4.7871,-4.784,-4.7836,-4.7816,-4.7815,-4.7847,-4.7815,-4.7803,-4.7797,-4.7797,-4.779,-4.7795,-4.7797,-4.7848,-4.7783,-4.7785,-4.7787,-4.7788,-4.796,-4.7963,0,0,0,0,0,0,-4.7836,-4.7834,-4.7871,-4.7871,-4.7825,-4.782,-4.7818,-4.7831,-4.7814,-4.7809,-4.78,-4.7794,-4.7793,-4.7794,-4.7796,-4.7881,-4.7786,-4.7788,-4.7789,-4.7957,-4.7961,-4.7964,0,0,0,0,0,0,-4.7835,-4.784,-4.7872,-4.7851,-4.7853,-4.7824,-4.7839,-4.7832,-4.7838,-4.7812,-4.7806,-4.7812,-4.7791,-4.7793,-4.7837,-4.788,-4.7789,-4.7791,-4.7953,-4.7958,-4.7963,-4.8052,0,0,0,0,0,0,-4.7834,-4.784,-4.7868,-4.7852,-4.7855,-4.7913,-4.7841,-4.7834,-4.7842,-4.7834,-4.7821,-4.7817,-4.7788,-4.7834,-4.7839,-4.7881,-4.7793,-4.7949,-4.7955,-4.7961,-4.8045,-4.806,-4.8072,0,0,0,0,0,-4.7832,-4.7893,-4.7869,-4.7874,-4.7889,-4.7916,-4.7917,-4.7884,-4.7846,-4.7873,-4.7857,-4.7817,-4.7875,-4.7839,-4.7844,-4.7888,-4.7946,-4.7954,-4.7961,-4.8039,-4.8057,-4.8071,0,0,0,0,0,0,-4.7913,-4.789,-4.7864,-4.7921,-4.7921,-4.7902,-4.7936,-4.7903,-4.7913,-4.7905,-4.7863,-4.7861,-4.7912,-4.7904,-4.7865,-4.7959,-4.7904,-4.7912,-4.7962,-4.7978,-4.7991,-4.7991,-4.7795,0,0,0,0,0,-4.7937,-4.7962,-4.794,-4.7992,-4.7994,-4.7965,-4.7976,-4.795,-4.7948,-4.7948,-4.7934,-4.7934,-4.7952,-4.7964,-4.7979,-4.8044,-4.8041,-4.8077,-4.809,-4.8101,-4.8109,-4.8144,-4.816,-4.7988,-4.7988,-4.7987,0,0,-4.7988,-4.7978,-4.7996,-4.8008,-4.8005,-4.8031,-4.7966,-4.7995,-4.8014,-4.7952,-4.7993,-4.7984,-4.798,-4.8036,-4.8059,-4.8031,-4.8156,-4.811,-4.8119,-4.8121,-4.8153,-4.8169,-4.8183,-4.7993,-4.7992,-4.7991,0,0,-4.8093,-4.8089,-4.8132,-4.8131,-4.8128,-4.8109,-4.812,-4.8107,-4.8098,-4.8139,-4.8093,-4.8115,-4.8147,-4.8147,-4.8151,-4.8259,-4.8222,-4.8265,-4.8333,-4.8368,-4.8381,-4.8393,-4.8432,-4.8446,-4.8273,-4.8273,-4.8273,0,-4.8156,-4.8194,-4.8159,-4.8192,-4.8199,-4.8146,-4.819,-4.819,-4.8192,-4.8198,-4.8167,-4.8207,-4.82,-4.8255,-4.8282,-4.8287,-4.8298,-4.8266,-4.8382,-4.8394,-4.8404,-4.8441,-4.8456,-4.8278,-4.8278,-4.8277,-4.8277,0,-4.8272,-4.8299,-4.8335,-4.8339,-4.835,-4.8389,-4.836,-4.8375,-4.835,-4.8334,-4.8377,-4.8368,-4.8381,-4.8392,-4.8367,-4.8444,-4.8427,-4.839,-4.8333,-4.8426,-4.846,-4.8474,-4.8286,-4.8284,-4.8282,-4.8281,0,0,-4.8425,-4.8412,-4.8426,-4.8428,-4.8422,-4.8442,-4.8478,-4.8492,-4.8506,-4.851,-4.854,-4.8569,-4.8535,-4.854,-4.8514,-4.8545,-4.8632,-4.8503,-4.8503,-4.8528,-4.8717,-4.8745,-4.8762,-4.8608,-4.861,-4.8612,-4.8717,0,-4.8527,-4.859,-4.856,-4.8626,-4.8651,-4.8602,-4.8634,-4.8634,-4.8621,-4.864,-4.8625,-4.8646,-4.86,-4.8602,-4.863,-4.8615,-4.8669,-4.8607,-4.8635,-4.8637,-4.8637,-4.8779,-4.8808,-4.8907,-4.873,-4.8732,-4.8734,0,-4.8654,-4.8664,-4.8733,-4.8724,-4.8733,-4.8763,-4.8774,-4.8793,-4.8792,-4.878,-4.8787,-4.8755,-4.8791,-4.8736,-4.8784,-4.8743,-4.8753,-4.8748,-4.8751,-4.8752,-4.8691,-4.8784,-4.8938,-4.8953,-4.8754,-4.8753,-4.8751,0,-4.8759,-4.8791,-4.8836,-4.884,-4.883,-4.8852,-4.8849,-4.8845,-4.8856,-4.8866,-4.8872,-4.8886,-4.8893,-4.8904,-4.8877,-4.8839,-4.893,-4.8872,-4.8921,-4.8922,-4.8941,-4.894,-4.9099,-4.8948,-4.8948,-4.8948,-4.8948,0,-4.8876,-4.892,-4.8884,-4.8912,-4.896,-4.8926,-4.8975,-4.8966,-4.8964,-4.899,-4.8948,-4.8972,-4.8935,-4.8956,-4.8935,-4.8979,-4.8982,-4.8974,-4.8968,-4.8978,-4.8979,-4.8983,-4.8975,-4.8952,-4.8951,-4.895,-4.895,0,-4.9001,-4.8979,-4.9026,-4.9014,-4.9012,-4.9048,-4.9038,-4.9063,-4.9048,-4.9081,-4.9087,-4.9063,-4.9086,-4.906,-4.908,-4.9066,-4.9126,-4.911,-4.9127,-4.9122,-4.9172,-4.9168,-4.9339,-4.936,-4.9196,-4.9198,-4.9199,0,-4.9077,-4.911,-4.9102,-4.9117,-4.9117,-4.9141,-4.9152,-4.9121,-4.9134,-4.9137,-4.9162,-4.9182,-4.9196,-4.9235,-4.9219,-4.9235,-4.9219,-4.9278,-4.922,-4.923,-4.922,-4.9218,-4.9221,-4.9289,-4.9291,-4.9293,-4.9294,0,-4.9213,-4.9201,-4.9219,-4.9235,-4.925,-4.926,-4.9266,-4.9281,-4.9248,-4.9266,-4.9289,-4.93,-4.9322,-4.9343,-4.9355,-4.9351,-4.9317,-4.9312,-4.9324,-4.9335,-4.9343,-4.934,-4.9158,-4.9308,-4.9307,-4.9306,-4.9305,-4.9304,-4.9315,-4.9343,-4.9343,-4.9365,-4.9368,-4.9376,-4.9399,-4.9388,-4.9408,-4.9424,-4.9404,-4.9434,-4.9433,-4.9446,-4.9447,-4.9469,-4.9444,-4.9461,-4.9466,-4.947,-4.9478,-4.934,-4.9471,-4.9471,-4.947,-4.947,-4.9469,0,-4.945,-4.9448,-4.9469,-4.9481,-4.9499,-4.9467,-4.9474,-4.949,-4.9517,-4.952,-4.9536,-4.9564,-4.9584,-4.9571,-4.9587,-4.9608,-4.9593,-4.9614,-4.9612,-4.9611,-4.95,-4.9488,-4.9626,-4.9625,-4.9625,-4.9625,-4.9625,-4.9625,-4.9522,-4.9567,-4.9556,-4.9603,-4.96,-4.9629,-4.9636,-4.9643,-4.9646,-4.9679,-4.9696,-4.9688,-4.9685,-4.9702,-4.9719,-4.9714,-4.9723,-4.9749,-4.9739,-4.9635,-4.9619,-4.9604,-4.9593,-4.9751,-4.9751,-4.9849,-4.9849,-4.985]}]]